Tracking 29892 objects as of 21-Nov-2024
HD Live streaming from Space Station
objects crossing your sky now

STARLINK-32370

Track STARLINK-32370 now!
10-day predictions
STARLINK-32370 is classified as:


NORAD ID: 61635
Int'l Code: 2024-191Q
Perigee: 440.7 km
Apogee: 442.8 km
Inclination: 43.0 °
Period: 93.3 minutes
Semi major axis: 6812 km
RCS: Unknown
Launch date: October 23, 2024
Source: United States (US)
Launch site: AIR FORCE EASTERN TEST RANGE (AFETR)
Your satellite tracking list
Your tracking list is empty




NASA's NSSDC Master Catalog

Two Line Element Set (TLE):
1 61635U 24191Q   24325.91668981 -.01487514  00000-0 -35347-1 0  9997
2 61635  42.9994 327.7335 0001526 269.4011 157.0648 15.43898157  5644
Source of the keplerian elements: AFSPC